Location: Davayat
(45.9471°N, 3.1105°E)
Time: 16:26:50
(UTC+00:00)

CZ-4B R/B - Pass Details

Date: 01 December 2020
Orbit: 389 x 457 km, 97.6° (Epoch: 23 January)

Event Time Altitude Azimuth Distance (km) Brightness Sun altitude
Exits shadow 16:56:59 11° 46° (NE) 1,393 3.3 -9.0°
Maximum altitude 16:59:14 21° 96° (E) 969 2.6 -9.4°
Drops below altitude 10° 17:01:44 10° 149° (SSE) 1,482 3.9 -9.8°
Sets 17:04:03 0° 165° (SSE) 2,353 5.1 -10.2°
